Probability
0 0 0 0 0 0 0 0 0 0 0 0 0 0 0 0 0 0 0 0 0 0 0 0 0 0 0 0 0 0 0 0 0 0 0 0 0 0
0 0 0 0 0 0 0 0 0 0 0 0 0 0 0 0 0 0 0 0 0 0 0 0 0 0 0 0 0 0 0 0 0 0 0 0 0 0
0 0 0 0 0 0 0 0 0 0 0 0 0 0 0 0 0 0 0 0 0 0 0 0 0 0 0 0 0 0 0 0 0 0 0 0 0 0
0 0 0 0 0 0 0 0 0 0 0 0 0 0 0 0 0 0 0 0 0 0 0 0 0 0 0 0 0 0 0 0 0 0 0 0 0 0
0 0 0 0 0 0 0 0 0 0 0 0 0 0 0 0 0 0 0 0 0 0 0 0 0 0 0 0 0 0 0 0 0 0 0 0 0 0
0 0 0 0 0 0 0 0 0 0 0 0 0 0 0 0 0 0 0 0 0 0 0 0 0 0 0 0 0 0 0 0 0 0 0 0 0 0
0 0 0 0 0 0 0 0 0 0 0 0 0 0 0 0 0 0 0 0 0 0 0 0 0 0 0 0 0 0 0 0 0 0 0 0 0 0
0 0 0 0 0 0 0 0 0 0 0 0 0 0 0 0 0 0 0 0 0 0 0 0 0 0 0 0 0 0 0 0 0 0 0 0 0 0
0 0 0 0 0 0 0 0 0 0 0 0 0 0 0 0 0 0 0 0 0 0 0 0 0 0 0 0 0 0 0 0 0 0 0 0 0 0
0 0 0 0 0 0 0 0 0 0 0 0 0 0 0 0 0 0 0 0 0 0 0 0 0 0 0 0 0 0 0 0 0 0 0 0 0 0
0 0 0 0 0 0 0 0 0 0 0 0 0 0 0 0 0 0 0 0 0 0 0 0 0 0 0 0 0 0 0 0 0 0 0 0 0 0
0 0 0 0 0 0 0 0 0 0 0 0 0 0 0 0 0 0 0 0 0 0 0 0 0 0 0 0 0 0 0 0 0 0 0 0 0 0
0 0 0 0 0 0 0 0 0 0 0 0 0 0 0 0 0 0 0 0 0 0 0 0 0 0 0 0 0 0 0 0 0 0 0 0 0 0
0 0 0 0 0 0 0 0 0 0 0 0 0 0 0 0 0 0 0 0 0 0 0 0 0 0 0 0 0 0 0 0 0 0 0 0 0 0
0 0 0 0 0 0 0 0 0 0 0 0 0 0 0 0 0 0 0 0 0 0 0 0 0 0 0 0 0 0 0 0 0 0 0 0 0 0
0 0 0 0 0 0 0 0 0 0 0 0 0 0 0 0 0 0 0 0 0 0 0 0 0 0 0 0 0 0 0 0 0 0 0 0 0 0
0 0 0 0 0 0 0 0 0 0 0 0 0 0 0 0 0 0 0 0 0 0 0 0 0 0 0 0 0 0 0 0 0 0 0 0 0 0
0 0 0 0 0 0 0 0 0 0 0 0 0 0 0 0 0 0 0 0 0 0 0 0 0 0 0 0 0 0 0 0 0 0 0 0 0 0
0 0 0 0 0 0 0 0 0 0 0 0 0 0 0 0 0 0 0 0 0 0 0 0 0 0 0 0 0 0 0 0 0 0 0 0 0 0
0 0 0 0 0 0 0 0 0 0 0 0 0 0 0 0 0 0 0 0 0 0 0 0 0 0 0 0 0 0 0 0 0 0 0 0 0 0
0 0 0 0 0 0 0 0 0 0 0 0 0 0 0 0 0 0 0 0 0 0 0 0 0 0 0 0 0 0 0 0 0 0 0 0 0 0
0 0 0 0 0 0 0 0 0 0 0 0 0 0 0 0 0 0 0 0 0 0 0 0 0 0 0 0 0 0 0 0 0 0 0 0 0 0
0 0 0 0 0 0 0 0 0 0 0 0 0 0 0 0 0 0 0 0 0 0 0 0 0 0 0 0 0 0 0 0 0 0 0 0 0 0
Wind_Speed
4 4 3 3 3 3 3 3 4 3 4 3 2 2 2 2 3 2 2 4 4 5 4 3 3 4 4 5 5 5 5 5 6 7 7 7 8 8
4 5 4 3 3 3 3 3 3 3 3 2 2 2 1 1 2 1 2 3 4 3 3 3 3 3 4 4 4 4 5 6 6 7 7 8 8 9
4 5 5 4 3 3 3 3 2 2 3 2 1 1 1 1 1 0 1 1 2 3 3 3 3 3 4 4 4 5 5 6 6 7 7 7 8 8
4 4 5 4 4 3 3 4 3 3 3 4 2 1 1 1 1 0 1 1 1 2 3 3 3 4 4 4 4 5 5 6 6 6 7 7 7 8
4 5 5 5 5 3 4 4 3 3 2 3 2 1 1 1 0 0 1 1 1 1 2 3 4 4 4 4 4 4 5 5 5 5 6 7 7 9
4 4 4 5 5 5 4 4 4 3 3 3 2 1 1 1 1 1 1 1 1 1 2 2 2 3 4 4 4 4 5 5 5 5 6 6 7 8
3 3 4 5 6 6 4 4 5 4 3 3 2 2 2 2 2 2 1 1 2 1 1 1 1 1 2 3 4 4 4 4 5 5 6 7 7 7
3 3 3 4 5 6 6 6 6 5 4 3 3 3 4 3 2 2 2 1 2 1 1 1 1 2 2 2 4 5 5 4 5 5 6 7 7 7
4 3 2 2 3 3 4 4 5 6 6 4 4 5 4 5 4 3 3 3 3 2 1 2 1 2 2 3 5 6 5 5 5 6 6 7 7 7
2 3 3 2 3 3 2 2 2 2 3 3 3 4 3 4 4 3 3 1 0 1 1 2 2 2 2 3 5 5 5 5 5 5 5 6 7 6
2 2 2 2 4 4 3 2 1 1 1 1 1 1 2 3 3 3 2 2 2 1 1 1 1 1 2 2 3 3 2 2 3 4 5 6 6 4
1 1 2 2 3 4 3 3 2 1 1 2 2 2 1 1 2 2 3 2 1 1 2 2 1 0 2 1 2 2 2 3 4 4 5 5 5 2
1 1 1 2 2 2 2 2 3 2 2 2 2 1 1 1 1 0 1 2 2 2 2 2 1 1 1 2 2 2 2 2 2 3 4 5 4 3
2 1 1 2 2 2 1 2 3 2 2 2 2 1 1 1 1 1 1 1 0 1 1 2 2 2 1 2 3 2 2 2 2 2 1 3 3 5
2 3 3 3 2 2 3 3 2 2 2 2 1 0 0 0 1 1 2 2 2 2 1 0 1 1 2 2 2 2 2 2 2 1 1 1 2 2
2 3 4 4 3 3 3 2 2 1 2 1 1 1 1 1 1 1 0 1 1 2 2 2 0 1 1 2 2 2 2 2 2 2 2 2 2 2
3 2 2 2 2 2 2 2 2 1 1 1 1 1 1 1 1 0 0 1 1 0 1 2 1 1 0 1 2 2 2 2 2 2 2 2 3 2
4 3 2 2 2 2 1 1 1 1 1 1 1 1 1 1 0 0 1 1 1 0 0 1 1 2 2 2 1 2 2 2 2 2 1 2 4 3
3 3 2 2 1 1 1 1 1 0 1 1 1 1 1 0 0 0 0 0 0 0 0 0 1 1 1 3 2 1 1 2 2 2 2 2 3 4
2 2 2 1 1 1 1 1 1 1 1 1 1 1 0 0 0 0 1 1 0 0 0 0 0 1 2 2 2 2 2 2 1 2 2 2 3 5
2 2 2 1 1 1 1 1 1 1 0 0 0 0 0 0 0 1 1 1 1 1 1 1 2 1 1 0 1 2 2 2 2 2 1 2 2 2
2 2 2 1 1 1 1 1 1 1 0 0 0 0 0 1 1 1 1 1 1 1 1 1 1 1 1 1 2 3 3 3 3 4 4 3 2 1
2 1 1 1 1 1 1 1 1 0 0 0 0 0 1 1 1 1 1 1 1 1 1 1 1 0 0 1 1 2 2 2 2 2 3 4 5 6
Wind_Direction
197 196 198 199 188 193 187 189 187 220 251 247 251 252 231 218 241 230 232 261 269 266 269 275 279 267 256 251 252 248 250 258 263 267 270 274 278 280
196 195 202 204 196 189 191 204 199 201 233 236 232 249 246 245 255 246 238 276 278 259 255 263 271 265 252 248 248 250 254 255 257 264 272 273 279 279
202 198 204 194 194 194 190 197 197 194 229 258 241 239 230 224 267 287 279 269 274 267 256 255 258 257 252 251 250 251 253 258 260 263 268 275 281 280
207 201 206 195 196 194 193 198 203 202 206 236 245 241 241 221 218 228 282 274 261 273 265 264 265 263 262 264 262 254 251 256 261 263 268 276 281 281
211 206 205 194 203 200 198 197 199 204 202 208 230 238 252 224 202 303 290 295 288 280 263 262 264 269 271 273 274 269 260 259 262 259 266 276 281 286
217 213 208 203 205 198 200 200 194 195 193 197 212 221 226 213 167 212 292 288 285 298 258 260 266 282 279 274 272 271 273 265 260 262 268 276 282 286
225 222 217 214 212 207 203 196 188 190 190 196 205 216 224 208 212 204 231 275 292 252 251 279 290 285 279 273 271 266 267 268 267 268 270 277 280 280
227 230 225 218 219 219 216 208 196 195 199 203 213 216 225 217 203 200 196 217 260 226 206 284 285 269 266 257 263 270 263 260 264 269 274 281 282 278
219 218 221 216 209 204 211 212 217 220 214 207 210 218 215 207 190 197 211 224 232 209 184 264 267 271 279 273 276 267 258 256 263 272 274 276 275 274
213 205 203 208 205 191 182 193 219 228 226 214 206 212 209 193 192 195 191 190 302 259 183 235 258 274 293 297 286 275 256 258 268 272 277 281 279 277
201 195 192 198 207 194 177 178 186 278 337 174 176 180 176 181 172 145 161 186 267 264 196 196 238 300 305 305 316 331 330 303 296 295 295 291 287 287
179 191 202 198 200 185 174 168 179 200 118 77 61 47 81 144 183 194 186 199 225 242 197 175 215 334 316 303 324 338 342 338 337 321 304 299 298 287
164 178 195 178 172 175 181 178 182 158 123 114 99 74 61 64 62 73 177 196 209 228 198 166 189 228 249 294 309 318 323 323 330 321 315 306 298 291
167 169 154 145 135 131 145 140 133 118 114 110 99 85 74 55 43 52 66 74 128 227 195 172 198 207 228 274 284 309 323 313 305 296 298 314 321 316
139 133 121 114 102 96 101 106 104 108 120 124 129 111 99 134 97 76 69 69 53 34 14 270 207 210 216 242 262 278 305 307 296 285 288 284 286 293
113 117 108 98 90 84 77 73 74 108 125 133 130 105 89 85 83 83 94 59 48 15 21 26 7 188 225 249 251 272 273 276 304 300 293 288 277 260
121 102 96 98 94 83 75 72 70 77 83 104 120 120 103 83 56 49 118 100 107 344 346 359 14 48 244 236 259 265 271 279 279 294 301 302 285 270
109 111 107 103 107 108 103 84 75 87 99 110 112 118 113 114 98 69 88 117 140 169 289 331 357 9 5 345 243 244 267 273 285 290 284 294 296 288
100 107 106 108 103 103 102 100 87 81 102 117 120 117 111 107 113 115 125 109 99 286 341 353 21 58 335 312 318 257 231 282 295 298 282 267 279 289
84 101 106 106 103 101 100 98 90 79 84 112 120 127 142 153 169 190 195 200 229 267 338 342 282 215 218 250 279 300 288 263 268 285 296 296 285 293
80 82 88 95 95 96 90 87 86 76 55 71 99 124 150 184 221 225 222 223 236 216 247 270 264 275 217 120 299 296 305 299 267 242 268 305 313 327
80 80 76 76 78 83 89 89 80 74 56 38 43 153 203 223 222 227 228 234 232 220 240 273 306 8 104 189 262 283 306 322 319 309 283 245 222 253
63 67 66 64 64 65 74 92 90 70 22 315 280 242 223 235 236 233 237 231 217 221 243 283 312 335 251 228 253 279 297 312 329 348 332 322 298 282